Simultaneous Nadir Overpasses (SNOs) Predictions

Prediction of SNOs between METOP-A and NOAA-19 Satellite Orbit:

Table of predicted SNOs for the next 14.0 days since TLE Epoch: 11/27/2015
Index Date (METOP-A) Time (METOP-A) Lat,Lon (METOP-A) SZA (METOP-A ) Date (NOAA-19) Time (NOAA-19) Lat,Lon (NOAA-19) SZA (NOAA-19 ) Distance(km) Time Diff (sec)
1 12/01/2015 19:21:45 -75.90, 69.09 82.34 12/01/2015 19:20:36 -75.91, 66.84 82.34 60.89 69
2 12/01/2015 20:12:32 75.55,-124.71 97.32 12/01/2015 20:11:28 75.55,-124.68 97.31 0.72 64
3 12/01/2015 21:03:14 -75.56, 42.64 82.68 12/01/2015 21:02:30 -75.53, 42.61 82.71 3.27 44
4 12/01/2015 21:53:54 75.53,-150.10 97.31 12/01/2015 21:53:30 75.53,-150.14 97.31 1.09 24
5 12/01/2015 22:44:37 -75.49, 17.11 82.73 12/01/2015 22:44:32 -75.51, 17.16 82.71 2.56 5
6
